Time,TemperatureF,DewpointF,PressureIn,WindDirection,WindDirectionDegrees,WindSpeedMPH,WindSpeedGustMPH,Humidity,HourlyPrecipIn,Conditions,Clouds,dailyrainin,SoftwareType,DateUTC
2013-03-24 00:00:00,41.6,9.3,29.93,ENE,67,0.0,1.0,26,0.00,,---,0.00,VWS V14.01,2013-03-24 07:00:00,
2013-03-24 00:05:00,40.8,8.6,29.93,ENE,69,0.0,0.0,26,0.00,,---,0.00,VWS V14.01,2013-03-24 07:05:00,
2013-03-24 00:10:00,40.0,8.7,29.93,ENE,77,1.0,1.0,27,0.00,,---,0.00,VWS V14.01,2013-03-24 07:10:00,
2013-03-24 00:15:00,39.6,9.2,29.93,East,83,1.0,1.0,28,0.00,,---,0.00,VWS V14.01,2013-03-24 07:15:00,
2013-03-24 00:20:00,39.5,9.1,29.93,East,83,0.0,1.0,28,0.00,,---,0.00,VWS V14.01,2013-03-24 07:20:00,
2013-03-24 00:25:00,39.4,9.0,29.93,East,83,0.0,0.0,28,0.00,,---,0.00,VWS V14.01,2013-03-24 07:25:00,
2013-03-24 00:30:00,39.3,8.9,29.94,East,83,0.0,0.0,28,0.00,,---,0.00,VWS V14.01,2013-03-24 07:30:00,
2013-03-24 00:35:00,38.8,8.5,29.94,East,83,0.0,0.0,28,0.00,,---,0.00,VWS V14.01,2013-03-24 07:35:00,
2013-03-24 00:40:00,38.5,8.2,29.94,East,83,0.0,0.0,28,0.00,,---,0.00,VWS V14.01,2013-03-24 07:40:00,
2013-03-24 00:45:00,38.3,8.8,29.94,East,83,0.0,0.0,29,0.00,,---,0.00,VWS V14.01,2013-03-24 07:45:00,
2013-03-24 00:50:00,37.8,8.4,29.94,East,83,0.0,0.0,29,0.00,,---,0.00,VWS V14.01,2013-03-24 07:50:00,
2013-03-24 00:55:00,37.9,8.5,29.94,East,83,0.0,0.0,29,0.00,,---,0.00,VWS V14.01,2013-03-24 07:55:00,
2013-03-24 01:00:00,37.9,8.5,29.94,East,83,0.0,0.0,29,0.00,,---,0.00,VWS V14.01,2013-03-24 08:00:00,
2013-03-24 01:05:00,37.7,8.3,29.94,East,83,1.0,1.0,29,0.00,,---,0.00,VWS V14.01,2013-03-24 08:05:00,
2013-03-24 01:10:00,37.6,8.2,29.94,East,83,0.0,0.0,29,0.00,,---,0.00,VWS V14.01,2013-03-24 08:10:00,
2013-03-24 01:15:00,37.7,7.6,29.94,East,83,0.0,1.0,28,0.00,,---,0.00,VWS V14.01,2013-03-24 08:15:00,
2013-03-24 01:20:00,37.6,7.5,29.94,East,83,0.0,2.0,28,0.00,,---,0.00,VWS V14.01,2013-03-24 08:20:00,
2013-03-24 01:25:00,37.3,8.0,29.94,East,83,0.0,1.0,29,0.00,,---,0.00,VWS V14.01,2013-03-24 08:25:00,
2013-03-24 01:30:00,37.3,8.0,29.94,East,83,0.0,0.0,29,0.00,,---,0.00,VWS V14.01,2013-03-24 08:30:00,
2013-03-24 01:35:00,37.5,7.4,29.94,East,83,0.0,0.0,28,0.00,,---,0.00,VWS V14.01,2013-03-24 08:35:00,
2013-03-24 01:40:00,37.6,7.5,29.95,East,84,0.0,2.0,28,0.00,,---,0.00,VWS V14.01,2013-03-24 08:40:00,
2013-03-24 01:44:00,37.6,7.5,29.94,East,83,0.0,0.0,28,0.00,,---,0.00,VWS V14.01,2013-03-24 08:44:00,
2013-03-24 01:45:00,37.6,7.5,29.94,East,83,0.0,2.0,28,0.00,,---,0.00,VWS V14.01,2013-03-24 08:45:00,
2013-03-24 01:49:00,38.3,7.3,29.94,East,83,0.0,1.0,27,0.00,,---,0.00,VWS V14.01,2013-03-24 08:49:00,
2013-03-24 01:50:00,38.0,7.8,29.94,East,83,0.0,0.0,28,0.00,,---,0.00,VWS V14.01,2013-03-24 08:50:00,
2013-03-24 01:54:00,38.6,7.5,29.94,East,83,0.0,0.0,27,0.00,,---,0.00,VWS V14.01,2013-03-24 08:54:00,
2013-03-24 01:55:00,38.6,7.5,29.95,East,83,0.0,1.0,27,0.00,,---,0.00,VWS V14.01,2013-03-24 08:55:00,
2013-03-24 01:59:00,38.8,7.7,29.94,East,83,0.0,1.0,27,0.00,,---,0.00,VWS V14.01,2013-03-24 08:59:00,
2013-03-24 02:00:00,38.7,7.6,29.94,East,83,1.0,2.0,27,0.00,,---,0.00,VWS V14.01,2013-03-24 09:00:00,
2013-03-24 02:04:00,39.8,7.7,29.94,East,83,0.0,0.0,26,0.00,,---,0.00,VWS V14.01,2013-03-24 09:04:00,
2013-03-24 02:05:00,39.6,7.6,29.94,East,83,0.0,1.0,26,0.00,,---,0.00,VWS V14.01,2013-03-24 09:05:00,
2013-03-24 02:09:00,40.1,7.1,29.94,East,83,0.0,1.0,25,0.00,,---,0.00,VWS V14.01,2013-03-24 09:09:00,
2013-03-24 02:10:00,40.0,7.9,29.94,East,83,1.0,1.0,26,0.00,,---,0.00,VWS V14.01,2013-03-24 09:10:00,
2013-03-24 02:14:00,39.8,7.7,29.94,East,83,0.0,0.0,26,0.00,,---,0.00,VWS V14.01,2013-03-24 09:14:00,
2013-03-24 02:15:00,40.0,7.9,29.94,East,83,0.0,1.0,26,0.00,,---,0.00,VWS V14.01,2013-03-24 09:15:00,
2013-03-24 02:19:00,39.5,7.5,29.94,East,83,0.0,0.0,26,0.00,,---,0.00,VWS V14.01,2013-03-24 09:19:00,
2013-03-24 02:20:00,39.6,7.6,29.94,East,83,0.0,1.0,26,0.00,,---,0.00,VWS V14.01,2013-03-24 09:20:00,
2013-03-24 02:24:00,39.1,7.1,29.94,East,83,0.0,0.0,26,0.00,,---,0.00,VWS V14.01,2013-03-24 09:24:00,
2013-03-24 02:25:00,39.2,7.2,29.94,East,83,0.0,1.0,26,0.00,,---,0.00,VWS V14.01,2013-03-24 09:25:00,
2013-03-24 02:29:00,38.4,7.3,29.94,East,83,1.0,1.0,27,0.00,,---,0.00,VWS V14.01,2013-03-24 09:29:00,
2013-03-24 02:30:00,38.6,7.5,29.94,East,83,0.0,1.0,27,0.00,,---,0.00,VWS V14.01,2013-03-24 09:30:00,
2013-03-24 02:34:00,37.9,6.9,29.93,East,83,0.0,0.0,27,0.00,,---,0.00,VWS V14.01,2013-03-24 09:34:00,
2013-03-24 02:35:00,38.0,7.0,29.93,East,83,0.0,1.0,27,0.00,,---,0.00,VWS V14.01,2013-03-24 09:35:00,
2013-03-24 02:39:00,37.5,7.4,29.93,East,82,1.0,2.0,28,0.00,,---,0.00,VWS V14.01,2013-03-24 09:39:00,
2013-03-24 02:40:00,37.6,6.7,29.93,East,83,1.0,2.0,27,0.00,,---,0.00,VWS V14.01,2013-03-24 09:40:00,
2013-03-24 02:44:00,37.1,7.0,29.93,East,82,1.0,2.0,28,0.00,,---,0.00,VWS V14.01,2013-03-24 09:44:00,
2013-03-24 02:45:00,37.2,7.1,29.93,East,82,1.0,2.0,28,0.00,,---,0.00,VWS V14.01,2013-03-24 09:45:00,
2013-03-24 02:49:00,36.9,6.8,29.93,East,84,0.0,2.0,28,0.00,,---,0.00,VWS V14.01,2013-03-24 09:49:00,
2013-03-24 02:50:00,36.9,6.8,29.93,East,83,2.0,2.0,28,0.00,,---,0.00,VWS V14.01,2013-03-24 09:50:00,
2013-03-24 02:54:00,36.6,6.6,29.93,East,84,1.0,1.0,28,0.00,,---,0.00,VWS V14.01,2013-03-24 09:54:00,
2013-03-24 02:55:00,36.7,6.7,29.93,East,84,0.0,2.0,28,0.00,,---,0.00,VWS V14.01,2013-03-24 09:55:00,
2013-03-24 02:59:00,36.7,6.7,29.93,East,84,0.0,0.0,28,0.00,,---,0.00,VWS V14.01,2013-03-24 09:59:00,
2013-03-24 03:00:00,36.6,6.6,29.93,East,83,0.0,3.0,28,0.00,,---,0.00,VWS V14.01,2013-03-24 10:00:00,
2013-03-24 03:04:00,36.9,6.8,29.93,East,84,0.0,0.0,28,0.00,,---,0.00,VWS V14.01,2013-03-24 10:04:00,
2013-03-24 03:05:00,36.8,6.8,29.93,East,84,0.0,0.0,28,0.00,,---,0.00,VWS V14.01,2013-03-24 10:05:00,
2013-03-24 03:09:00,36.7,6.7,29.94,East,84,0.0,0.0,28,0.00,,---,0.00,VWS V14.01,2013-03-24 10:09:00,
2013-03-24 03:10:00,36.8,6.8,29.93,East,84,0.0,0.0,28,0.00,,---,0.00,VWS V14.01,2013-03-24 10:10:00,
2013-03-24 03:14:00,36.4,7.2,29.93,East,84,0.0,0.0,29,0.00,,---,0.00,VWS V14.01,2013-03-24 10:14:00,
2013-03-24 03:15:00,36.5,7.3,29.93,East,84,0.0,0.0,29,0.00,,---,0.00,VWS V14.01,2013-03-24 10:15:00,
2013-03-24 03:19:00,36.3,7.1,29.93,East,84,1.0,2.0,29,0.00,,---,0.00,VWS V14.01,2013-03-24 10:19:00,
2013-03-24 03:20:00,36.3,7.1,29.93,East,84,1.0,1.0,29,0.00,,---,0.00,VWS V14.01,2013-03-24 10:20:00,
2013-03-24 03:24:00,36.6,6.6,29.93,East,84,0.0,2.0,28,0.00,,---,0.00,VWS V14.01,2013-03-24 10:24:00,
2013-03-24 03:25:00,36.5,7.3,29.93,East,84,1.0,2.0,29,0.00,,---,0.00,VWS V14.01,2013-03-24 10:25:00,
2013-03-24 03:29:00,36.9,6.8,29.93,East,84,0.0,0.0,28,0.00,,---,0.00,VWS V14.01,2013-03-24 10:29:00,
2013-03-24 03:30:00,36.8,6.8,29.93,East,84,0.0,2.0,28,0.00,,---,0.00,VWS V14.01,2013-03-24 10:30:00,
2013-03-24 03:34:00,37.2,7.1,29.93,East,84,0.0,0.0,28,0.00,,---,0.00,VWS V14.01,2013-03-24 10:34:00,
2013-03-24 03:35:00,37.1,7.0,29.93,East,84,0.0,0.0,28,0.00,,---,0.00,VWS V14.01,2013-03-24 10:35:00,
2013-03-24 03:39:00,37.7,6.8,29.93,East,84,0.0,0.0,27,0.00,,---,0.00,VWS V14.01,2013-03-24 10:39:00,
2013-03-24 03:40:00,37.6,7.5,29.93,East,84,0.0,0.0,28,0.00,,---,0.00,VWS V14.01,2013-03-24 10:40:00,
2013-03-24 03:44:00,38.0,7.0,29.93,East,84,0.0,0.0,27,0.00,,---,0.00,VWS V14.01,2013-03-24 10:44:00,
2013-03-24 03:45:00,38.0,7.0,29.93,East,84,0.0,0.0,27,0.00,,---,0.00,VWS V14.01,2013-03-24 10:45:00,
2013-03-24 03:49:00,38.1,7.1,29.93,East,84,0.0,1.0,27,0.00,,---,0.00,VWS V14.01,2013-03-24 10:49:00,
2013-03-24 03:50:00,38.0,7.0,29.93,East,84,0.0,1.0,27,0.00,,---,0.00,VWS V14.01,2013-03-24 10:50:00,
2013-03-24 03:54:00,37.8,6.8,29.93,East,83,0.0,1.0,27,0.00,,---,0.00,VWS V14.01,2013-03-24 10:54:00,
2013-03-24 03:55:00,37.9,6.9,29.93,East,84,1.0,1.0,27,0.00,,---,0.00,VWS V14.01,2013-03-24 10:55:00,
2013-03-24 03:59:00,37.6,6.7,29.93,East,83,0.0,1.0,27,0.00,,---,0.00,VWS V14.01,2013-03-24 10:59:00,
2013-03-24 04:00:00,37.6,6.7,29.93,East,84,1.0,2.0,27,0.00,,---,0.00,VWS V14.01,2013-03-24 11:00:00,
2013-03-24 04:04:00,37.7,6.8,29.94,East,83,1.0,1.0,27,0.00,,---,0.00,VWS V14.01,2013-03-24 11:04:00,
2013-03-24 04:05:00,37.6,6.7,29.94,East,83,1.0,1.0,27,0.00,,---,0.00,VWS V14.01,2013-03-24 11:05:00,
2013-03-24 04:09:00,37.6,5.8,29.94,East,84,1.0,1.0,26,0.00,,---,0.00,VWS V14.01,2013-03-24 11:09:00,
2013-03-24 04:10:00,37.6,6.7,29.94,East,83,0.0,2.0,27,0.00,,---,0.00,VWS V14.01,2013-03-24 11:10:00,
2013-03-24 04:14:00,37.5,5.8,29.94,East,83,0.0,0.0,26,0.00,,---,0.00,VWS V14.01,2013-03-24 11:14:00,
2013-03-24 04:15:00,37.5,5.8,29.94,East,83,0.0,1.0,26,0.00,,---,0.00,VWS V14.01,2013-03-24 11:15:00,
2013-03-24 04:19:00,37.3,5.6,29.94,East,83,0.0,1.0,26,0.00,,---,0.00,VWS V14.01,2013-03-24 11:19:00,
2013-03-24 04:20:00,37.3,5.6,29.94,East,84,0.0,1.0,26,0.00,,---,0.00,VWS V14.01,2013-03-24 11:20:00,
2013-03-24 04:24:00,36.7,5.9,29.93,East,84,1.0,2.0,27,0.00,,---,0.00,VWS V14.01,2013-03-24 11:24:00,
2013-03-24 04:25:00,36.8,6.0,29.93,East,84,1.0,2.0,27,0.00,,---,0.00,VWS V14.01,2013-03-24 11:25:00,
2013-03-24 04:29:00,36.3,5.5,29.94,East,84,1.0,2.0,27,0.00,,---,0.00,VWS V14.01,2013-03-24 11:29:00,
2013-03-24 04:30:00,36.4,5.6,29.94,East,83,2.0,2.0,27,0.00,,---,0.00,VWS V14.01,2013-03-24 11:30:00,
2013-03-24 04:34:00,36.5,5.7,29.94,East,84,1.0,2.0,27,0.00,,---,0.00,VWS V14.01,2013-03-24 11:34:00,
2013-03-24 04:35:00,36.4,5.6,29.94,East,83,1.0,2.0,27,0.00,,---,0.00,VWS V14.01,2013-03-24 11:35:00,
2013-03-24 04:39:00,36.7,5.9,29.94,East,84,2.0,2.0,27,0.00,,---,0.00,VWS V14.01,2013-03-24 11:39:00,
2013-03-24 04:40:00,36.7,5.9,29.94,East,83,1.0,2.0,27,0.00,,---,0.00,VWS V14.01,2013-03-24 11:40:00,
2013-03-24 04:44:00,36.6,5.8,29.94,East,82,2.0,3.0,27,0.00,,---,0.00,VWS V14.01,2013-03-24 11:44:00,
2013-03-24 04:45:00,36.6,5.8,29.94,East,83,1.0,3.0,27,0.00,,---,0.00,VWS V14.01,2013-03-24 11:45:00,
2013-03-24 04:49:00,36.2,5.4,29.94,East,82,2.0,2.0,27,0.00,,---,0.00,VWS V14.01,2013-03-24 11:49:00,
2013-03-24 04:50:00,36.2,5.4,29.94,East,82,1.0,3.0,27,0.00,,---,0.00,VWS V14.01,2013-03-24 11:50:00,
2013-03-24 04:54:00,36.2,5.4,29.94,East,82,1.0,2.0,27,0.00,,---,0.00,VWS V14.01,2013-03-24 11:54:00,
2013-03-24 04:55:00,36.2,5.4,29.94,East,82,1.0,3.0,27,0.00,,---,0.00,VWS V14.01,2013-03-24 11:55:00,
2013-03-24 04:59:00,36.2,5.4,29.94,East,82,1.0,3.0,27,0.00,,---,0.00,VWS V14.01,2013-03-24 11:59:00,
2013-03-24 05:00:00,36.2,5.4,29.94,East,82,2.0,2.0,27,0.00,,---,0.00,VWS V14.01,2013-03-24 12:00:00,
2013-03-24 05:04:00,36.4,5.6,29.94,East,82,1.0,1.0,27,0.00,,---,0.00,VWS V14.01,2013-03-24 12:04:00,
2013-03-24 05:05:00,36.4,5.6,29.94,East,82,1.0,3.0,27,0.00,,---,0.00,VWS V14.01,2013-03-24 12:05:00,
2013-03-24 05:09:00,36.4,5.6,29.94,East,82,1.0,1.0,27,0.00,,---,0.00,VWS V14.01,2013-03-24 12:09:00,
2013-03-24 05:10:00,36.4,5.6,29.94,East,82,1.0,2.0,27,0.00,,---,0.00,VWS V14.01,2013-03-24 12:10:00,
2013-03-24 05:14:00,36.6,5.8,29.94,East,82,1.0,1.0,27,0.00,,---,0.00,VWS V14.01,2013-03-24 12:14:00,
2013-03-24 05:15:00,36.6,5.8,29.94,East,82,1.0,2.0,27,0.00,,---,0.00,VWS V14.01,2013-03-24 12:15:00,
2013-03-24 05:19:00,36.6,5.0,29.94,East,82,0.0,1.0,26,0.00,,---,0.00,VWS V14.01,2013-03-24 12:19:00,
2013-03-24 05:20:00,36.7,5.1,29.94,East,82,1.0,2.0,26,0.00,,---,0.00,VWS V14.01,2013-03-24 12:20:00,
2013-03-24 05:24:00,36.5,4.9,29.95,East,82,0.0,1.0,26,0.00,,---,0.00,VWS V14.01,2013-03-24 12:24:00,
2013-03-24 05:25:00,36.5,4.9,29.94,East,82,0.0,1.0,26,0.00,,---,0.00,VWS V14.01,2013-03-24 12:25:00,
2013-03-24 05:29:00,36.5,4.9,29.95,East,82,1.0,1.0,26,0.00,,---,0.00,VWS V14.01,2013-03-24 12:29:00,
2013-03-24 05:30:00,36.5,4.9,29.95,East,82,1.0,2.0,26,0.00,,---,0.00,VWS V14.01,2013-03-24 12:30:00,
2013-03-24 05:34:00,36.6,5.0,29.95,East,82,1.0,2.0,26,0.00,,---,0.00,VWS V14.01,2013-03-24 12:34:00,
2013-03-24 05:35:00,36.6,5.0,29.95,East,82,0.0,2.0,26,0.00,,---,0.00,VWS V14.01,2013-03-24 12:35:00,
2013-03-24 05:39:00,36.7,5.1,29.95,East,82,0.0,1.0,26,0.00,,---,0.00,VWS V14.01,2013-03-24 12:39:00,
2013-03-24 05:40:00,36.7,5.1,29.95,East,82,1.0,2.0,26,0.00,,---,0.00,VWS V14.01,2013-03-24 12:40:00,
2013-03-24 05:44:00,36.6,5.0,29.95,East,82,1.0,2.0,26,0.00,,---,0.00,VWS V14.01,2013-03-24 12:44:00,
2013-03-24 05:45:00,36.6,5.0,29.95,East,82,1.0,1.0,26,0.00,,---,0.00,VWS V14.01,2013-03-24 12:45:00,
2013-03-24 05:49:00,36.7,5.1,29.95,East,82,0.0,1.0,26,0.00,,---,0.00,VWS V14.01,2013-03-24 12:49:00,
2013-03-24 05:50:00,36.7,5.1,29.95,East,82,1.0,2.0,26,0.00,,---,0.00,VWS V14.01,2013-03-24 12:50:00,
2013-03-24 05:54:00,36.7,5.1,29.95,East,82,1.0,1.0,26,0.00,,---,0.00,VWS V14.01,2013-03-24 12:54:00,
2013-03-24 05:55:00,36.7,5.1,29.95,East,82,1.0,1.0,26,0.00,,---,0.00,VWS V14.01,2013-03-24 12:55:00,
2013-03-24 05:59:00,36.8,5.1,29.95,East,82,1.0,1.0,26,0.00,,---,0.00,VWS V14.01,2013-03-24 12:59:00,
2013-03-24 06:00:00,36.8,5.1,29.95,East,82,1.0,1.0,26,0.00,,---,0.00,VWS V14.01,2013-03-24 13:00:00,
2013-03-24 06:04:00,36.8,5.1,29.95,East,82,0.0,1.0,26,0.00,,---,0.00,VWS V14.01,2013-03-24 13:04:00,
2013-03-24 06:05:00,36.8,5.1,29.95,East,82,0.0,1.0,26,0.00,,---,0.00,VWS V14.01,2013-03-24 13:05:00,
2013-03-24 06:09:00,36.6,5.0,29.95,East,82,0.0,1.0,26,0.00,,---,0.00,VWS V14.01,2013-03-24 13:09:00,
2013-03-24 06:10:00,36.6,5.0,29.95,East,82,0.0,1.0,26,0.00,,---,0.00,VWS V14.01,2013-03-24 13:10:00,
2013-03-24 06:14:00,36.6,5.0,29.95,East,82,0.0,1.0,26,0.00,,---,0.00,VWS V14.01,2013-03-24 13:14:00,
2013-03-24 06:15:00,36.6,5.0,29.95,East,82,1.0,1.0,26,0.00,,---,0.00,VWS V14.01,2013-03-24 13:15:00,
2013-03-24 06:19:00,36.5,4.9,29.96,East,82,1.0,2.0,26,0.00,,---,0.00,VWS V14.01,2013-03-24 13:19:00,
2013-03-24 06:20:00,36.5,4.9,29.95,East,82,1.0,1.0,26,0.00,,---,0.00,VWS V14.01,2013-03-24 13:20:00,
2013-03-24 06:24:00,36.5,4.9,29.96,East,82,1.0,1.0,26,0.00,,---,0.00,VWS V14.01,2013-03-24 13:24:00,
2013-03-24 06:25:00,36.5,4.9,29.96,East,82,0.0,2.0,26,0.00,,---,0.00,VWS V14.01,2013-03-24 13:25:00,
2013-03-24 06:29:00,36.3,4.7,29.96,East,82,1.0,1.0,26,0.00,,---,0.00,VWS V14.01,2013-03-24 13:29:00,
2013-03-24 06:30:00,36.3,4.7,29.96,East,82,0.0,2.0,26,0.00,,---,0.00,VWS V14.01,2013-03-24 13:30:00,
2013-03-24 06:34:00,36.2,5.4,29.96,East,82,0.0,1.0,27,0.00,,---,0.00,VWS V14.01,2013-03-24 13:34:00,
2013-03-24 06:35:00,36.2,4.6,29.96,East,82,0.0,1.0,26,0.00,,---,0.00,VWS V14.01,2013-03-24 13:35:00,
2013-03-24 06:39:00,36.3,5.5,29.96,East,82,1.0,1.0,27,0.00,,---,0.00,VWS V14.01,2013-03-24 13:39:00,
2013-03-24 06:40:00,36.2,5.4,29.96,East,82,1.0,2.0,27,0.00,,---,0.00,VWS V14.01,2013-03-24 13:40:00,
2013-03-24 06:44:00,37.0,5.3,29.96,East,82,1.0,1.0,26,0.00,,---,0.00,VWS V14.01,2013-03-24 13:44:00,
2013-03-24 06:45:00,36.8,5.1,29.96,East,82,0.0,2.0,26,0.00,,---,0.00,VWS V14.01,2013-03-24 13:45:00,
2013-03-24 06:49:00,37.8,6.0,29.96,East,83,0.0,1.0,26,0.00,,---,0.00,VWS V14.01,2013-03-24 13:49:00,
2013-03-24 06:50:00,37.6,5.8,29.96,East,82,1.0,1.0,26,0.00,,---,0.00,VWS V14.01,2013-03-24 13:50:00,
2013-03-24 06:54:00,38.3,5.6,29.96,East,85,0.0,0.0,25,0.00,,---,0.00,VWS V14.01,2013-03-24 13:54:00,
2013-03-24 06:55:00,38.1,5.4,29.96,East,84,0.0,1.0,25,0.00,,---,0.00,VWS V14.01,2013-03-24 13:55:00,
2013-03-24 06:59:00,39.3,5.5,29.97,East,85,0.0,0.0,24,0.00,,---,0.00,VWS V14.01,2013-03-24 13:59:00,
2013-03-24 07:00:00,39.0,5.3,29.97,East,84,0.0,0.0,24,0.00,,---,0.00,VWS V14.01,2013-03-24 14:00:00,
2013-03-24 07:04:00,40.7,6.7,29.97,East,84,0.0,0.0,24,0.00,,---,0.00,VWS V14.01,2013-03-24 14:04:00,
2013-03-24 07:05:00,40.4,6.5,29.96,East,85,0.0,0.0,24,0.00,,---,0.00,VWS V14.01,2013-03-24 14:05:00,
2013-03-24 07:09:00,42.1,7.0,29.96,East,85,0.0,0.0,23,0.00,,---,0.00,VWS V14.01,2013-03-24 14:09:00,
2013-03-24 07:10:00,41.7,6.7,29.97,East,85,0.0,0.0,23,0.00,,---,0.00,VWS V14.01,2013-03-24 14:10:00,
2013-03-24 07:14:00,43.4,7.1,29.97,East,85,0.0,0.0,22,0.00,,---,0.00,VWS V14.01,2013-03-24 14:14:00,
2013-03-24 07:15:00,43.0,7.8,29.97,East,84,0.0,0.0,23,0.00,,---,0.00,VWS V14.01,2013-03-24 14:15:00,
2013-03-24 07:19:00,44.8,8.3,29.97,East,84,0.0,0.0,22,0.00,,---,0.00,VWS V14.01,2013-03-24 14:19:00,
2013-03-24 07:20:00,44.4,7.9,29.97,East,84,0.0,0.0,22,0.00,,---,0.00,VWS V14.01,2013-03-24 14:20:00,
2013-03-24 07:24:00,46.4,8.6,29.97,East,85,0.0,0.0,21,0.00,,---,0.00,VWS V14.01,2013-03-24 14:24:00,
2013-03-24 07:25:00,46.0,8.3,29.97,East,84,0.0,0.0,21,0.00,,---,0.00,VWS V14.01,2013-03-24 14:25:00,
2013-03-24 07:29:00,48.1,8.9,29.97,East,84,0.0,0.0,20,0.00,,---,0.00,VWS V14.01,2013-03-24 14:29:00,
2013-03-24 07:30:00,47.7,8.6,29.97,East,85,0.0,0.0,20,0.00,,---,0.00,VWS V14.01,2013-03-24 14:30:00,
2013-03-24 07:34:00,49.4,8.9,29.97,East,85,0.0,0.0,19,0.00,,---,0.00,VWS V14.01,2013-03-24 14:34:00,
2013-03-24 07:35:00,49.1,8.6,29.97,East,84,0.0,0.0,19,0.00,,---,0.00,VWS V14.01,2013-03-24 14:35:00,
2013-03-24 07:39:00,50.8,8.8,29.97,East,85,0.0,0.0,18,0.00,,---,0.00,VWS V14.01,2013-03-24 14:39:00,
2013-03-24 07:40:00,50.6,8.7,29.97,East,84,0.0,0.0,18,0.00,,---,0.00,VWS V14.01,2013-03-24 14:40:00,
2013-03-24 07:44:00,51.1,9.1,29.98,East,84,0.0,0.0,18,0.00,,---,0.00,VWS V14.01,2013-03-24 14:44:00,
2013-03-24 07:45:00,51.0,9.0,29.97,East,85,0.0,0.0,18,0.00,,---,0.00,VWS V14.01,2013-03-24 14:45:00,
2013-03-24 07:49:00,51.3,8.0,29.98,East,85,0.0,0.0,17,0.00,,---,0.00,VWS V14.01,2013-03-24 14:49:00,
2013-03-24 07:50:00,51.3,8.0,29.97,East,85,0.0,0.0,17,0.00,,---,0.00,VWS V14.01,2013-03-24 14:50:00,
2013-03-24 07:54:00,51.5,8.1,29.97,East,85,0.0,0.0,17,0.00,,---,0.00,VWS V14.01,2013-03-24 14:54:00,
2013-03-24 07:55:00,51.4,8.1,29.98,East,85,0.0,0.0,17,0.00,,---,0.00,VWS V14.01,2013-03-24 14:55:00,
2013-03-24 07:59:00,51.6,8.2,29.98,East,85,0.0,0.0,17,0.00,,---,0.00,VWS V14.01,2013-03-24 14:59:00,
2013-03-24 08:00:00,51.5,8.1,29.98,East,84,0.0,0.0,17,0.00,,---,0.00,VWS V14.01,2013-03-24 15:00:00,
2013-03-24 08:04:00,51.8,8.4,29.98,East,88,0.0,0.0,17,0.00,,---,0.00,VWS V14.01,2013-03-24 15:04:00,
2013-03-24 08:05:00,51.7,7.0,29.98,East,85,0.0,0.0,16,0.00,,---,0.00,VWS V14.01,2013-03-24 15:05:00,
2013-03-24 08:09:00,52.2,7.4,29.98,ESE,109,3.0,3.0,16,0.00,,---,0.00,VWS V14.01,2013-03-24 15:09:00,
2013-03-24 08:10:00,52.1,8.6,29.97,East,91,2.0,2.0,17,0.00,,---,0.00,VWS V14.01,2013-03-24 15:10:00,
2013-03-24 08:14:00,52.6,7.7,29.98,SSE,167,3.0,3.0,16,0.00,,---,0.00,VWS V14.01,2013-03-24 15:14:00,
2013-03-24 08:15:00,52.5,7.6,29.97,SSE,167,1.0,4.0,16,0.00,,---,0.00,VWS V14.01,2013-03-24 15:15:00,
2013-03-24 08:19:00,53.1,8.1,29.98,SSE,168,2.0,4.0,16,0.00,,---,0.00,VWS V14.01,2013-03-24 15:19:00,
2013-03-24 08:20:00,53.1,8.1,29.97,SSE,168,3.0,4.0,16,0.00,,---,0.00,VWS V14.01,2013-03-24 15:20:00,
2013-03-24 08:24:00,53.8,7.2,29.98,South,169,0.0,3.0,15,0.00,,---,0.00,VWS V14.01,2013-03-24 15:24:00,
2013-03-24 08:25:00,53.6,8.5,29.98,South,169,2.0,4.0,16,0.00,,---,0.00,VWS V14.01,2013-03-24 15:25:00,
2013-03-24 08:29:00,54.5,7.8,29.98,South,169,0.0,3.0,15,0.00,,---,0.00,VWS V14.01,2013-03-24 15:29:00,
2013-03-24 08:30:00,54.3,7.7,29.98,South,169,2.0,3.0,15,0.00,,---,0.00,VWS V14.01,2013-03-24 15:30:00,
2013-03-24 08:34:00,55.0,8.2,29.98,South,169,0.0,2.0,15,0.00,,---,0.00,VWS V14.01,2013-03-24 15:34:00,
2013-03-24 08:35:00,54.9,8.1,29.98,South,169,0.0,3.0,15,0.00,,---,0.00,VWS V14.01,2013-03-24 15:35:00,
2013-03-24 08:39:00,55.5,7.1,29.98,South,169,2.0,2.0,14,0.00,,---,0.00,VWS V14.01,2013-03-24 15:39:00,
2013-03-24 08:40:00,55.3,8.5,29.98,South,169,0.0,2.0,15,0.00,,---,0.00,VWS V14.01,2013-03-24 15:40:00,
2013-03-24 08:44:00,55.8,7.3,29.98,South,170,0.0,0.0,14,0.00,,---,0.00,VWS V14.01,2013-03-24 15:44:00,
2013-03-24 08:45:00,55.7,7.3,29.98,South,170,0.0,3.0,14,0.00,,---,0.00,VWS V14.01,2013-03-24 15:45:00,
2013-03-24 08:49:00,56.0,7.5,29.98,South,171,0.0,0.0,14,0.00,,---,0.00,VWS V14.01,2013-03-24 15:49:00,
2013-03-24 08:50:00,55.9,7.4,29.98,South,171,0.0,3.0,14,0.00,,---,0.00,VWS V14.01,2013-03-24 15:50:00,
2013-03-24 08:54:00,56.1,7.6,29.98,SSW,196,0.0,2.0,14,0.00,,---,0.00,VWS V14.01,2013-03-24 15:54:00,
2013-03-24 08:55:00,56.1,7.6,29.98,SSW,196,2.0,4.0,14,0.00,,---,0.00,VWS V14.01,2013-03-24 15:55:00,
2013-03-24 08:59:00,56.4,7.8,29.98,SSW,198,2.0,3.0,14,0.00,,---,0.00,VWS V14.01,2013-03-24 15:59:00,
2013-03-24 09:00:00,56.2,7.7,29.98,SSW,198,0.0,4.0,14,0.00,,---,0.00,VWS V14.01,2013-03-24 16:00:00,
2013-03-24 09:04:00,56.5,6.3,29.97,SSW,199,0.0,0.0,13,0.00,,---,0.00,VWS V14.01,2013-03-24 16:04:00,
2013-03-24 09:05:00,56.3,6.1,29.98,SSW,199,0.0,4.0,13,0.00,,---,0.00,VWS V14.01,2013-03-24 16:05:00,
2013-03-24 09:09:00,56.7,8.1,29.98,WSW,239,0.0,0.0,14,0.00,,---,0.00,VWS V14.01,2013-03-24 16:09:00,
2013-03-24 09:10:00,56.6,6.3,29.98,WSW,238,0.0,6.0,13,0.00,,---,0.00,VWS V14.01,2013-03-24 16:10:00,
2013-03-24 09:14:00,56.8,6.5,29.98,WSW,253,1.0,3.0,13,0.00,,---,0.00,VWS V14.01,2013-03-24 16:14:00,
2013-03-24 09:15:00,56.8,6.5,29.98,WSW,254,3.0,6.0,13,0.00,,---,0.00,VWS V14.01,2013-03-24 16:15:00,
2013-03-24 09:19:00,56.9,6.6,29.98,WSW,254,2.0,3.0,13,0.00,,---,0.00,VWS V14.01,2013-03-24 16:19:00,
2013-03-24 09:20:00,56.8,6.5,29.98,WSW,253,0.0,4.0,13,0.00,,---,0.00,VWS V14.01,2013-03-24 16:20:00,
2013-03-24 09:24:00,57.5,7.1,29.97,WSW,250,0.0,3.0,13,0.00,,---,0.00,VWS V14.01,2013-03-24 16:24:00,
2013-03-24 09:25:00,57.4,7.0,29.97,WSW,250,3.0,3.0,13,0.00,,---,0.00,VWS V14.01,2013-03-24 16:25:00,
2013-03-24 09:29:00,57.6,7.1,29.97,WSW,250,2.0,4.0,13,0.00,,---,0.00,VWS V14.01,2013-03-24 16:29:00,
2013-03-24 09:30:00,57.6,7.1,29.97,WSW,250,2.0,5.0,13,0.00,,---,0.00,VWS V14.01,2013-03-24 16:30:00,
2013-03-24 09:34:00,58.1,7.5,29.97,WSW,248,1.0,3.0,13,0.00,,---,0.00,VWS V14.01,2013-03-24 16:34:00,
2013-03-24 09:35:00,58.0,7.4,29.97,WSW,249,1.0,4.0,13,0.00,,---,0.00,VWS V14.01,2013-03-24 16:35:00,
2013-03-24 09:39:00,58.7,8.0,29.97,WSW,249,1.0,1.0,13,0.00,,---,0.00,VWS V14.01,2013-03-24 16:39:00,
2013-03-24 09:40:00,58.4,7.8,29.97,WSW,248,0.0,3.0,13,0.00,,---,0.00,VWS V14.01,2013-03-24 16:40:00,
2013-03-24 09:44:00,58.8,6.3,29.97,WSW,249,0.0,4.0,12,0.00,,---,0.00,VWS V14.01,2013-03-24 16:44:00,
2013-03-24 09:45:00,59.0,6.5,29.97,WSW,248,3.0,6.0,12,0.00,,---,0.00,VWS V14.01,2013-03-24 16:45:00,
2013-03-24 09:49:00,58.7,8.0,29.97,SW,236,3.0,4.0,13,0.00,,---,0.00,VWS V14.01,2013-03-24 16:49:00,
2013-03-24 09:50:00,58.7,8.0,29.97,WSW,248,3.0,5.0,13,0.00,,---,0.00,VWS V14.01,2013-03-24 16:50:00,
2013-03-24 09:54:00,59.0,6.5,29.97,WSW,250,3.0,4.0,12,0.00,,---,0.00,VWS V14.01,2013-03-24 16:54:00,
2013-03-24 09:55:00,59.0,8.2,29.97,WSW,238,1.0,4.0,13,0.00,,---,0.00,VWS V14.01,2013-03-24 16:55:00,
2013-03-24 09:59:00,59.0,8.2,29.97,West,273,4.0,5.0,13,0.00,,---,0.00,VWS V14.01,2013-03-24 16:59:00,
2013-03-24 10:00:00,59.0,6.5,29.97,West,270,5.0,5.0,12,0.00,,---,0.00,VWS V14.01,2013-03-24 17:00:00,
2013-03-24 10:04:00,59.0,6.5,29.97,West,277,4.0,5.0,12,0.00,,---,0.00,VWS V14.01,2013-03-24 17:04:00,
2013-03-24 10:05:00,59.0,6.5,29.97,West,276,2.0,7.0,12,0.00,,---,0.00,VWS V14.01,2013-03-24 17:05:00,
2013-03-24 10:09:00,59.0,8.2,29.97,West,277,4.0,4.0,13,0.00,,---,0.00,VWS V14.01,2013-03-24 17:09:00,
2013-03-24 10:10:00,58.9,6.4,29.97,West,276,0.0,5.0,12,0.00,,---,0.00,VWS V14.01,2013-03-24 17:10:00,
2013-03-24 10:14:00,59.1,6.6,29.97,West,280,0.0,3.0,12,0.00,,---,0.00,VWS V14.01,2013-03-24 17:14:00,
2013-03-24 10:15:00,59.0,8.2,29.97,West,279,2.0,4.0,13,0.00,,---,0.00,VWS V14.01,2013-03-24 17:15:00,
2013-03-24 10:19:00,60.2,9.2,29.96,SW,223,6.0,6.0,13,0.00,,---,0.00,VWS V14.01,2013-03-24 17:19:00,
2013-03-24 10:20:00,60.0,9.0,29.96,SW,232,4.0,5.0,13,0.00,,---,0.00,VWS V14.01,2013-03-24 17:20:00,
2013-03-24 10:24:00,60.5,9.4,29.96,West,275,0.0,1.0,13,0.00,,---,0.00,VWS V14.01,2013-03-24 17:24:00,
2013-03-24 10:25:00,60.4,9.4,29.96,West,275,1.0,6.0,13,0.00,,---,0.00,VWS V14.01,2013-03-24 17:25:00,
2013-03-24 10:29:00,60.8,9.7,29.96,WSW,247,1.0,2.0,13,0.00,,---,0.00,VWS V14.01,2013-03-24 17:29:00,
2013-03-24 10:30:00,60.7,7.8,29.96,WSW,247,0.0,6.0,12,0.00,,---,0.00,VWS V14.01,2013-03-24 17:30:00,
2013-03-24 10:34:00,60.7,9.6,29.96,West,272,2.0,3.0,13,0.00,,---,0.00,VWS V14.01,2013-03-24 17:34:00,
2013-03-24 10:35:00,60.8,7.9,29.96,West,272,3.0,7.0,12,0.00,,---,0.00,VWS V14.01,2013-03-24 17:35:00,
2013-03-24 10:39:00,60.9,9.8,29.96,WNW,302,0.0,6.0,13,0.00,,---,0.00,VWS V14.01,2013-03-24 17:39:00,
2013-03-24 10:40:00,60.8,9.7,29.96,WNW,302,6.0,6.0,13,0.00,,---,0.00,VWS V14.01,2013-03-24 17:40:00,
2013-03-24 10:44:00,61.1,8.1,29.95,WNW,285,3.0,10.0,12,0.00,,---,0.00,VWS V14.01,2013-03-24 17:44:00,
2013-03-24 10:45:00,61.0,8.1,29.96,West,281,6.0,10.0,12,0.00,,---,0.00,VWS V14.01,2013-03-24 17:45:00,
2013-03-24 10:49:00,61.1,8.1,29.95,WNW,286,0.0,2.0,12,0.00,,---,0.00,VWS V14.01,2013-03-24 17:49:00,
2013-03-24 10:50:00,61.0,8.1,29.95,WNW,286,0.0,10.0,12,0.00,,---,0.00,VWS V14.01,2013-03-24 17:50:00,
2013-03-24 10:54:00,61.5,8.4,29.95,WNW,298,5.0,9.0,12,0.00,,---,0.00,VWS V14.01,2013-03-24 17:54:00,
2013-03-24 10:55:00,61.5,8.4,29.95,NW,313,0.0,6.0,12,0.00,,---,0.00,VWS V14.01,2013-03-24 17:55:00,
2013-03-24 10:59:00,61.9,8.8,29.95,WNW,285,2.0,5.0,12,0.00,,---,0.00,VWS V14.01,2013-03-24 17:59:00,
2013-03-24 11:00:00,61.8,8.7,29.95,WNW,290,4.0,10.0,12,0.00,,---,0.00,VWS V14.01,2013-03-24 18:00:00,
2013-03-24 11:04:00,62.5,7.3,29.95,WNW,285,0.0,1.0,11,0.00,,---,0.00,VWS V14.01,2013-03-24 18:04:00,
2013-03-24 11:05:00,62.3,7.1,29.95,WNW,285,0.0,5.0,11,0.00,,---,0.00,VWS V14.01,2013-03-24 18:05:00,
2013-03-24 11:09:00,62.9,5.5,29.95,WNW,300,3.0,3.0,10,0.00,,---,0.00,VWS V14.01,2013-03-24 18:09:00,
2013-03-24 11:10:00,62.9,7.6,29.95,WNW,301,1.0,7.0,11,0.00,,---,0.00,VWS V14.01,2013-03-24 18:10:00,
2013-03-24 11:14:00,62.7,7.4,29.95,WNW,288,4.0,4.0,11,0.00,,---,0.00,VWS V14.01,2013-03-24 18:14:00,
2013-03-24 11:15:00,62.7,7.4,29.95,West,279,0.0,9.0,11,0.00,,---,0.00,VWS V14.01,2013-03-24 18:15:00,
2013-03-24 11:19:00,62.9,5.5,29.94,SW,233,0.0,5.0,10,0.00,,---,0.00,VWS V14.01,2013-03-24 18:19:00,
2013-03-24 11:20:00,62.9,5.5,29.94,SW,232,5.0,7.0,10,0.00,,---,0.00,VWS V14.01,2013-03-24 18:20:00,
2013-03-24 11:24:00,63.1,5.7,29.94,NNW,329,7.0,7.0,10,0.00,,---,0.00,VWS V14.01,2013-03-24 18:24:00,
2013-03-24 11:25:00,63.0,5.6,29.94,NW,314,3.0,7.0,10,0.00,,---,0.00,VWS V14.01,2013-03-24 18:25:00,
2013-03-24 11:29:00,63.5,6.0,29.94,NW,309,6.0,6.0,10,0.00,,---,0.00,VWS V14.01,2013-03-24 18:29:00,
2013-03-24 11:30:00,63.3,7.9,29.94,WNW,298,5.0,9.0,11,0.00,,---,0.00,VWS V14.01,2013-03-24 18:30:00,
2013-03-24 11:34:00,64.1,8.5,29.94,West,267,5.0,7.0,11,0.00,,---,0.00,VWS V14.01,2013-03-24 18:34:00,
2013-03-24 11:35:00,64.0,8.5,29.94,WNW,287,6.0,9.0,11,0.00,,---,0.00,VWS V14.01,2013-03-24 18:35:00,
2013-03-24 11:39:00,64.1,8.5,29.94,WNW,283,5.0,7.0,11,0.00,,---,0.00,VWS V14.01,2013-03-24 18:39:00,
2013-03-24 11:40:00,64.2,8.6,29.94,NW,321,5.0,10.0,11,0.00,,---,0.00,VWS V14.01,2013-03-24 18:40:00,
2013-03-24 11:44:00,63.9,8.4,29.94,NNE,14,2.0,7.0,11,0.00,,---,0.00,VWS V14.01,2013-03-24 18:44:00,
2013-03-24 11:45:00,63.9,8.4,29.94,NW,311,4.0,10.0,11,0.00,,---,0.00,VWS V14.01,2013-03-24 18:45:00,
2013-03-24 11:49:00,64.2,8.6,29.93,West,263,5.0,6.0,11,0.00,,---,0.00,VWS V14.01,2013-03-24 18:49:00,
2013-03-24 11:50:00,64.1,8.5,29.93,North,355,0.0,7.0,11,0.00,,---,0.00,VWS V14.01,2013-03-24 18:50:00,
2013-03-24 11:54:00,64.8,9.1,29.94,NW,310,6.0,9.0,11,0.00,,---,0.00,VWS V14.01,2013-03-24 18:54:00,
2013-03-24 11:55:00,64.6,8.9,29.93,NNW,333,7.0,12.0,11,0.00,,---,0.00,VWS V14.01,2013-03-24 18:55:00,
2013-03-24 11:59:00,64.7,9.0,29.93,North,355,4.0,8.0,11,0.00,,---,0.00,VWS V14.01,2013-03-24 18:59:00,
2013-03-24 12:00:00,64.7,9.0,29.93,NW,315,4.0,9.0,11,0.00,,---,0.00,VWS V14.01,2013-03-24 19:00:00,
2013-03-24 12:04:00,64.6,10.9,29.93,North,355,0.0,0.0,12,0.00,,---,0.00,VWS V14.01,2013-03-24 19:04:00,
2013-03-24 12:05:00,64.5,8.9,29.93,North,355,0.0,8.0,11,0.00,,---,0.00,VWS V14.01,2013-03-24 19:05:00,
2013-03-24 12:09:00,65.0,11.2,29.93,NW,309,11.0,11.0,12,0.00,,---,0.00,VWS V14.01,2013-03-24 19:09:00,
2013-03-24 12:10:00,64.9,9.2,29.93,NW,313,10.0,12.0,11,0.00,,---,0.00,VWS V14.01,2013-03-24 19:10:00,
2013-03-24 12:14:00,65.0,9.2,29.93,NNW,327,4.0,9.0,11,0.00,,---,0.00,VWS V14.01,2013-03-24 19:14:00,
2013-03-24 12:15:00,65.0,9.2,29.93,NW,307,6.0,13.0,11,0.00,,---,0.00,VWS V14.01,2013-03-24 19:15:00,
2013-03-24 12:19:00,64.7,9.0,29.93,NW,304,9.0,11.0,11,0.00,,---,0.00,VWS V14.01,2013-03-24 19:19:00,
2013-03-24 12:20:00,64.6,8.9,29.92,WNW,286,3.0,12.0,11,0.00,,---,0.00,VWS V14.01,2013-03-24 19:20:00,
2013-03-24 12:24:00,64.8,9.1,29.92,South,182,6.0,11.0,11,0.00,,---,0.00,VWS V14.01,2013-03-24 19:24:00,
2013-03-24 12:25:00,64.8,9.1,29.92,SW,229,6.0,11.0,11,0.00,,---,0.00,VWS V14.01,2013-03-24 19:25:00,
2013-03-24 12:29:00,64.5,8.9,29.92,South,190,3.0,6.0,11,0.00,,---,0.00,VWS V14.01,2013-03-24 19:29:00,
2013-03-24 12:30:00,64.5,8.9,29.91,South,188,5.0,11.0,11,0.00,,---,0.00,VWS V14.01,2013-03-24 19:30:00,
2013-03-24 12:34:00,64.8,9.1,29.92,SSW,213,0.0,0.0,11,0.00,,---,0.00,VWS V14.01,2013-03-24 19:34:00,
2013-03-24 12:35:00,64.7,9.0,29.92,SSW,213,0.0,10.0,11,0.00,,---,0.00,VWS V14.01,2013-03-24 19:35:00,
2013-03-24 12:39:00,65.6,9.7,29.91,SW,223,4.0,5.0,11,0.00,,---,0.00,VWS V14.01,2013-03-24 19:39:00,
2013-03-24 12:40:00,65.5,9.6,29.92,South,184,1.0,5.0,11,0.00,,---,0.00,VWS V14.01,2013-03-24 19:40:00,
2013-03-24 12:44:00,66.0,10.0,29.91,NE,42,2.0,2.0,11,0.00,,---,0.00,VWS V14.01,2013-03-24 19:44:00,
2013-03-24 12:45:00,65.8,9.9,29.91,WNW,298,0.0,5.0,11,0.00,,---,0.00,VWS V14.01,2013-03-24 19:45:00,
2013-03-24 12:49:00,66.0,10.0,29.90,NW,308,2.0,5.0,11,0.00,,---,0.00,VWS V14.01,2013-03-24 19:49:00,
2013-03-24 12:50:00,66.1,8.0,29.90,NW,309,3.0,12.0,10,0.00,,---,0.00,VWS V14.01,2013-03-24 19:50:00,
2013-03-24 12:54:00,66.1,10.1,29.89,North,11,4.0,12.0,11,0.00,,---,0.00,VWS V14.01,2013-03-24 19:54:00,
2013-03-24 12:55:00,66.0,10.0,29.89,NW,326,6.0,6.0,11,0.00,,---,0.00,VWS V14.01,2013-03-24 19:55:00,
2013-03-24 12:59:00,66.7,10.6,29.89,SW,225,1.0,3.0,11,0.00,,---,0.00,VWS V14.01,2013-03-24 19:59:00,
2013-03-24 13:00:00,66.5,10.4,29.89,SSE,160,0.0,12.0,11,0.00,,---,0.00,VWS V14.01,2013-03-24 20:00:00,
2013-03-24 13:04:00,67.4,9.0,29.89,SW,224,6.0,9.0,10,0.00,,---,0.00,VWS V14.01,2013-03-24 20:04:00,
2013-03-24 13:05:00,67.6,9.1,29.89,WSW,254,9.0,12.0,10,0.00,,---,0.00,VWS V14.01,2013-03-24 20:05:00,
2013-03-24 13:09:00,66.6,8.4,29.88,WSW,250,9.0,10.0,10,0.00,,---,0.00,VWS V14.01,2013-03-24 20:09:00,
2013-03-24 13:10:00,66.7,8.4,29.89,West,273,4.0,10.0,10,0.00,,---,0.00,VWS V14.01,2013-03-24 20:10:00,
2013-03-24 13:14:00,65.9,9.9,29.88,SSW,212,3.0,6.0,11,0.00,,---,0.00,VWS V14.01,2013-03-24 20:14:00,
2013-03-24 13:15:00,66.0,7.9,29.89,SW,234,4.0,11.0,10,0.00,,---,0.00,VWS V14.01,2013-03-24 20:15:00,
2013-03-24 13:19:00,66.1,8.0,29.88,SSW,211,0.0,3.0,10,0.00,,---,0.00,VWS V14.01,2013-03-24 20:19:00,
2013-03-24 13:20:00,66.0,10.0,29.88,SSW,210,2.0,6.0,11,0.00,,---,0.00,VWS V14.01,2013-03-24 20:20:00,
2013-03-24 13:24:00,66.9,10.7,29.87,SSW,211,5.0,5.0,11,0.00,,---,0.00,VWS V14.01,2013-03-24 20:24:00,
2013-03-24 13:25:00,66.6,10.5,29.88,SSW,211,1.0,3.0,11,0.00,,---,0.00,VWS V14.01,2013-03-24 20:25:00,
2013-03-24 13:29:00,67.5,11.2,29.87,WSW,256,2.0,6.0,11,0.00,,---,0.00,VWS V14.01,2013-03-24 20:29:00,
2013-03-24 13:30:00,67.6,9.1,29.87,WSW,258,4.0,15.0,10,0.00,,---,0.00,VWS V14.01,2013-03-24 20:30:00,
2013-03-24 13:34:00,67.9,11.5,29.87,NW,323,7.0,10.0,11,0.00,,---,0.00,VWS V14.01,2013-03-24 20:34:00,
2013-03-24 13:35:00,67.8,11.4,29.87,WNW,287,7.0,14.0,11,0.00,,---,0.00,VWS V14.01,2013-03-24 20:35:00,
2013-03-24 13:39:00,68.3,11.8,29.86,West,271,15.0,15.0,11,0.00,,---,0.00,VWS V14.01,2013-03-24 20:39:00,
2013-03-24 13:40:00,68.2,11.7,29.87,NW,306,4.0,16.0,11,0.00,,---,0.00,VWS V14.01,2013-03-24 20:40:00,
2013-03-24 13:44:00,68.2,11.7,29.86,WNW,283,9.0,16.0,11,0.00,,---,0.00,VWS V14.01,2013-03-24 20:44:00,
2013-03-24 13:45:00,68.1,11.6,29.86,WNW,284,16.0,19.0,11,0.00,,---,0.00,VWS V14.01,2013-03-24 20:45:00,
2013-03-24 13:49:00,68.3,11.8,29.86,WNW,290,13.0,17.0,11,0.00,,---,0.00,VWS V14.01,2013-03-24 20:49:00,
2013-03-24 13:50:00,68.3,11.8,29.86,West,279,14.0,18.0,11,0.00,,---,0.00,VWS V14.01,2013-03-24 20:50:00,
2013-03-24 13:54:00,68.5,11.9,29.85,West,273,10.0,16.0,11,0.00,,---,0.00,VWS V14.01,2013-03-24 20:54:00,
2013-03-24 13:55:00,68.3,11.8,29.85,WNW,288,16.0,17.0,11,0.00,,---,0.00,VWS V14.01,2013-03-24 20:55:00,
2013-03-24 13:59:00,68.4,11.9,29.85,WNW,292,13.0,15.0,11,0.00,,---,0.00,VWS V14.01,2013-03-24 20:59:00,
2013-03-24 14:00:00,68.5,11.9,29.85,West,273,15.0,20.0,11,0.00,,---,0.00,VWS V14.01,2013-03-24 21:00:00,
2013-03-24 14:04:00,68.6,12.0,29.85,WNW,296,13.0,19.0,11,0.00,,---,0.00,VWS V14.01,2013-03-24 21:04:00,
2013-03-24 14:05:00,68.5,11.9,29.85,West,279,13.0,22.0,11,0.00,,---,0.00,VWS V14.01,2013-03-24 21:05:00,
2013-03-24 14:09:00,68.5,11.9,29.85,NW,309,12.0,17.0,11,0.00,,---,0.00,VWS V14.01,2013-03-24 21:09:00,
2013-03-24 14:10:00,68.4,11.9,29.85,WNW,301,13.0,23.0,11,0.00,,---,0.00,VWS V14.01,2013-03-24 21:10:00,
2013-03-24 14:14:00,69.3,12.6,29.85,WNW,283,17.0,22.0,11,0.00,,---,0.00,VWS V14.01,2013-03-24 21:14:00,
2013-03-24 14:15:00,69.2,12.5,29.85,WNW,295,22.0,22.0,11,0.00,,---,0.00,VWS V14.01,2013-03-24 21:15:00,
2013-03-24 14:19:00,68.6,12.0,29.85,WNW,288,11.0,19.0,11,0.00,,---,0.00,VWS V14.01,2013-03-24 21:19:00,
2013-03-24 14:20:00,68.6,12.0,29.85,West,277,16.0,22.0,11,0.00,,---,0.00,VWS V14.01,2013-03-24 21:20:00,
2013-03-24 14:24:00,68.9,12.3,29.85,WNW,294,18.0,20.0,11,0.00,,---,0.00,VWS V14.01,2013-03-24 21:24:00,
2013-03-24 14:25:00,68.9,12.3,29.85,NW,307,16.0,20.0,11,0.00,,---,0.00,VWS V14.01,2013-03-24 21:25:00,
2013-03-24 14:29:00,68.4,11.9,29.85,WNW,302,14.0,20.0,11,0.00,,---,0.00,VWS V14.01,2013-03-24 21:29:00,
2013-03-24 14:30:00,68.5,11.9,29.85,WNW,300,15.0,22.0,11,0.00,,---,0.00,VWS V14.01,2013-03-24 21:30:00,
2013-03-24 14:34:00,68.7,12.1,29.84,WNW,294,18.0,18.0,11,0.00,,---,0.00,VWS V14.01,2013-03-24 21:34:00,
2013-03-24 14:35:00,68.6,12.0,29.85,WNW,296,16.0,20.0,11,0.00,,---,0.00,VWS V14.01,2013-03-24 21:35:00,
2013-03-24 14:39:00,69.0,12.3,29.84,WNW,291,14.0,19.0,11,0.00,,---,0.00,VWS V14.01,2013-03-24 21:39:00,
2013-03-24 14:40:00,69.1,12.4,29.84,NW,321,17.0,19.0,11,0.00,,---,0.00,VWS V14.01,2013-03-24 21:40:00,
2013-03-24 14:44:00,68.1,11.6,29.84,WNW,283,10.0,19.0,11,0.00,,---,0.00,VWS V14.01,2013-03-24 21:44:00,
2013-03-24 14:45:00,68.0,11.6,29.84,West,273,19.0,20.0,11,0.00,,---,0.00,VWS V14.01,2013-03-24 21:45:00,
2013-03-24 14:49:00,68.2,11.7,29.84,West,270,18.0,20.0,11,0.00,,---,0.00,VWS V14.01,2013-03-24 21:49:00,
2013-03-24 14:50:00,68.2,11.7,29.84,WNW,286,18.0,21.0,11,0.00,,---,0.00,VWS V14.01,2013-03-24 21:50:00,
2013-03-24 14:54:00,68.2,11.7,29.84,West,273,23.0,23.0,11,0.00,,---,0.00,VWS V14.01,2013-03-24 21:54:00,
2013-03-24 14:55:00,68.2,11.7,29.84,WNW,286,20.0,23.0,11,0.00,,---,0.00,VWS V14.01,2013-03-24 21:55:00,
2013-03-24 14:59:00,68.1,11.6,29.84,West,275,16.0,18.0,11,0.00,,---,0.00,VWS V14.01,2013-03-24 21:59:00,
2013-03-24 15:00:00,68.2,11.7,29.84,West,259,15.0,23.0,11,0.00,,---,0.00,VWS V14.01,2013-03-24 22:00:00,
2013-03-24 15:04:00,68.1,11.6,29.84,West,277,14.0,16.0,11,0.00,,---,0.00,VWS V14.01,2013-03-24 22:04:00,
2013-03-24 15:05:00,67.9,11.5,29.84,WNW,299,12.0,19.0,11,0.00,,---,0.00,VWS V14.01,2013-03-24 22:05:00,
2013-03-24 15:09:00,67.9,11.5,29.84,WNW,294,12.0,15.0,11,0.00,,---,0.00,VWS V14.01,2013-03-24 22:09:00,
2013-03-24 15:10:00,68.0,11.6,29.84,WNW,297,13.0,21.0,11,0.00,,---,0.00,VWS V14.01,2013-03-24 22:10:00,
2013-03-24 15:14:00,68.0,11.6,29.84,West,277,11.0,18.0,11,0.00,,---,0.00,VWS V14.01,2013-03-24 22:14:00,
2013-03-24 15:15:00,68.3,11.8,29.84,West,263,18.0,21.0,11,0.00,,---,0.00,VWS V14.01,2013-03-24 22:15:00,
2013-03-24 15:19:00,67.8,13.4,29.84,West,279,13.0,19.0,12,0.00,,---,0.00,VWS V14.01,2013-03-24 22:19:00,
2013-03-24 15:20:00,67.7,13.3,29.84,West,272,16.0,25.0,12,0.00,,---,0.00,VWS V14.01,2013-03-24 22:20:00,
2013-03-24 15:24:00,67.6,13.2,29.83,WSW,257,12.0,18.0,12,0.00,,---,0.00,VWS V14.01,2013-03-24 22:24:00,
2013-03-24 15:25:00,67.6,13.2,29.84,West,280,14.0,19.0,12,0.00,,---,0.00,VWS V14.01,2013-03-24 22:25:00,
2013-03-24 15:29:00,67.5,13.1,29.83,WSW,256,9.0,12.0,12,0.00,,---,0.00,VWS V14.01,2013-03-24 22:29:00,
2013-03-24 15:30:00,67.5,11.2,29.83,West,270,9.0,19.0,11,0.00,,---,0.00,VWS V14.01,2013-03-24 22:30:00,
2013-03-24 15:34:00,67.5,11.2,29.84,West,265,10.0,14.0,11,0.00,,---,0.00,VWS V14.01,2013-03-24 22:34:00,
2013-03-24 15:35:00,67.6,11.2,29.83,West,271,11.0,24.0,11,0.00,,---,0.00,VWS V14.01,2013-03-24 22:35:00,
2013-03-24 15:39:00,67.4,13.1,29.83,WNW,292,25.0,25.0,12,0.00,,---,0.00,VWS V14.01,2013-03-24 22:39:00,
2013-03-24 15:40:00,67.4,13.1,29.84,West,273,18.0,22.0,12,0.00,,---,0.00,VWS V14.01,2013-03-24 22:40:00,
2013-03-24 15:44:00,67.6,13.2,29.84,WSW,257,15.0,17.0,12,0.00,,---,0.00,VWS V14.01,2013-03-24 22:44:00,
2013-03-24 15:45:00,67.4,13.1,29.84,WNW,288,15.0,25.0,12,0.00,,---,0.00,VWS V14.01,2013-03-24 22:45:00,
2013-03-24 15:49:00,67.7,11.3,29.83,WNW,288,12.0,15.0,11,0.00,,---,0.00,VWS V14.01,2013-03-24 22:49:00,
2013-03-24 15:50:00,67.8,13.4,29.84,NW,314,13.0,22.0,12,0.00,,---,0.00,VWS V14.01,2013-03-24 22:50:00,
2013-03-24 15:54:00,67.1,12.8,29.83,West,279,13.0,13.0,12,0.00,,---,0.00,VWS V14.01,2013-03-24 22:54:00,
2013-03-24 15:55:00,67.2,12.9,29.84,West,281,9.0,21.0,12,0.00,,---,0.00,VWS V14.01,2013-03-24 22:55:00,
2013-03-24 15:59:00,67.3,13.0,29.83,WNW,286,13.0,17.0,12,0.00,,---,0.00,VWS V14.01,2013-03-24 22:59:00,
2013-03-24 16:00:00,67.3,13.0,29.83,West,263,14.0,22.0,12,0.00,,---,0.00,VWS V14.01,2013-03-24 23:00:00,
2013-03-24 16:04:00,67.2,12.9,29.83,WNW,284,14.0,14.0,12,0.00,,---,0.00,VWS V14.01,2013-03-24 23:04:00,
2013-03-24 16:05:00,67.2,12.9,29.83,West,259,9.0,17.0,12,0.00,,---,0.00,VWS V14.01,2013-03-24 23:05:00,
2013-03-24 16:09:00,67.7,13.3,29.83,West,273,16.0,16.0,12,0.00,,---,0.00,VWS V14.01,2013-03-24 23:09:00,
2013-03-24 16:10:00,67.7,13.3,29.83,West,276,7.0,19.0,12,0.00,,---,0.00,VWS V14.01,2013-03-24 23:10:00,
2013-03-24 16:14:00,67.4,13.1,29.83,West,265,14.0,21.0,12,0.00,,---,0.00,VWS V14.01,2013-03-24 23:14:00,
2013-03-24 16:15:00,67.5,13.1,29.83,West,271,21.0,21.0,12,0.00,,---,0.00,VWS V14.01,2013-03-24 23:15:00,
2013-03-24 16:19:00,67.4,13.1,29.83,WSW,252,16.0,16.0,12,0.00,,---,0.00,VWS V14.01,2013-03-24 23:19:00,
2013-03-24 16:20:00,67.4,13.1,29.83,West,275,7.0,21.0,12,0.00,,---,0.00,VWS V14.01,2013-03-24 23:20:00,
2013-03-24 16:24:00,67.1,12.8,29.83,NW,304,14.0,18.0,12,0.00,,---,0.00,VWS V14.01,2013-03-24 23:24:00,
2013-03-24 16:25:00,67.1,12.8,29.83,West,279,16.0,21.0,12,0.00,,---,0.00,VWS V14.01,2013-03-24 23:25:00,
2013-03-24 16:29:00,67.2,12.9,29.83,West,280,13.0,17.0,12,0.00,,---,0.00,VWS V14.01,2013-03-24 23:29:00,
2013-03-24 16:30:00,67.2,12.9,29.83,West,265,17.0,18.0,12,0.00,,---,0.00,VWS V14.01,2013-03-24 23:30:00,
2013-03-24 16:34:00,66.9,12.7,29.83,West,277,13.0,15.0,12,0.00,,---,0.00,VWS V14.01,2013-03-24 23:34:00,
2013-03-24 16:35:00,67.1,12.8,29.83,West,261,14.0,20.0,12,0.00,,---,0.00,VWS V14.01,2013-03-24 23:35:00,
2013-03-24 16:39:00,66.7,12.5,29.83,West,273,16.0,16.0,12,0.00,,---,0.00,VWS V14.01,2013-03-24 23:39:00,
2013-03-24 16:40:00,66.7,12.5,29.83,West,271,15.0,16.0,12,0.00,,---,0.00,VWS V14.01,2013-03-24 23:40:00,
2013-03-24 16:44:00,66.6,12.4,29.83,WNW,290,10.0,16.0,12,0.00,,---,0.00,VWS V14.01,2013-03-24 23:44:00,
2013-03-24 16:45:00,66.6,12.4,29.83,WNW,287,15.0,19.0,12,0.00,,---,0.00,VWS V14.01,2013-03-24 23:45:00,
2013-03-24 16:49:00,66.7,12.5,29.83,WNW,302,13.0,16.0,12,0.00,,---,0.00,VWS V14.01,2013-03-24 23:49:00,
2013-03-24 16:50:00,66.7,12.5,29.83,NNW,332,16.0,20.0,12,0.00,,---,0.00,VWS V14.01,2013-03-24 23:50:00,
2013-03-24 16:54:00,66.6,12.4,29.83,West,268,15.0,15.0,12,0.00,,---,0.00,VWS V14.01,2013-03-24 23:54:00,
2013-03-24 16:55:00,66.6,12.4,29.83,West,265,15.0,18.0,12,0.00,,---,0.00,VWS V14.01,2013-03-24 23:55:00,
2013-03-24 16:59:00,66.5,12.4,29.83,WNW,295,7.0,10.0,12,0.00,,---,0.00,VWS V14.01,2013-03-24 23:59:00,
2013-03-24 17:00:00,66.5,12.4,29.83,NNW,332,6.0,16.0,12,0.00,,---,0.00,VWS V14.01,2013-03-25 00:00:00,
2013-03-24 17:04:00,66.2,12.1,29.83,WNW,284,16.0,16.0,12,0.00,,---,0.00,VWS V14.01,2013-03-25 00:04:00,
2013-03-24 17:05:00,66.3,12.2,29.83,WNW,299,16.0,19.0,12,0.00,,---,0.00,VWS V14.01,2013-03-25 00:05:00,
2013-03-24 17:09:00,66.2,10.2,29.83,WNW,300,9.0,10.0,11,0.00,,---,0.00,VWS V14.01,2013-03-25 00:09:00,
2013-03-24 17:10:00,66.1,10.1,29.83,WNW,289,7.0,18.0,11,0.00,,---,0.00,VWS V14.01,2013-03-25 00:10:00,
2013-03-24 17:14:00,66.2,10.2,29.83,West,270,11.0,14.0,11,0.00,,---,0.00,VWS V14.01,2013-03-25 00:14:00,
2013-03-24 17:15:00,66.3,10.2,29.83,West,277,12.0,18.0,11,0.00,,---,0.00,VWS V14.01,2013-03-25 00:15:00,
2013-03-24 17:19:00,65.9,9.9,29.83,WNW,286,16.0,20.0,11,0.00,,---,0.00,VWS V14.01,2013-03-25 00:19:00,
2013-03-24 17:20:00,66.0,10.0,29.83,WNW,290,18.0,19.0,11,0.00,,---,0.00,VWS V14.01,2013-03-25 00:20:00,
2013-03-24 17:24:00,65.5,11.6,29.83,West,271,11.0,16.0,12,0.00,,---,0.00,VWS V14.01,2013-03-25 00:24:00,
2013-03-24 17:25:00,65.5,11.6,29.84,WNW,287,15.0,20.0,12,0.00,,---,0.00,VWS V14.01,2013-03-25 00:25:00,
2013-03-24 17:29:00,65.5,11.6,29.84,WNW,289,11.0,13.0,12,0.00,,---,0.00,VWS V14.01,2013-03-25 00:29:00,
2013-03-24 17:30:00,65.5,11.6,29.83,West,275,13.0,18.0,12,0.00,,---,0.00,VWS V14.01,2013-03-25 00:30:00,
2013-03-24 17:34:00,65.2,11.3,29.84,WNW,292,12.0,16.0,12,0.00,,---,0.00,VWS V14.01,2013-03-25 00:34:00,
2013-03-24 17:35:00,65.3,11.4,29.84,West,273,14.0,17.0,12,0.00,,---,0.00,VWS V14.01,2013-03-25 00:35:00,
2013-03-24 17:39:00,64.8,11.0,29.84,WNW,291,11.0,14.0,12,0.00,,---,0.00,VWS V14.01,2013-03-25 00:39:00,
2013-03-24 17:40:00,64.9,11.1,29.84,WNW,286,11.0,16.0,12,0.00,,---,0.00,VWS V14.01,2013-03-25 00:40:00,
2013-03-24 17:44:00,64.9,11.1,29.84,WNW,292,9.0,13.0,12,0.00,,---,0.00,VWS V14.01,2013-03-25 00:44:00,
2013-03-24 17:45:00,64.8,11.0,29.84,WNW,290,12.0,14.0,12,0.00,,---,0.00,VWS V14.01,2013-03-25 00:45:00,
2013-03-24 17:49:00,64.8,11.0,29.84,WNW,301,10.0,12.0,12,0.00,,---,0.00,VWS V14.01,2013-03-25 00:49:00,
2013-03-24 17:50:00,64.8,11.0,29.84,WNW,288,10.0,17.0,12,0.00,,---,0.00,VWS V14.01,2013-03-25 00:50:00,
2013-03-24 17:54:00,64.2,10.6,29.84,WNW,291,12.0,12.0,12,0.00,,---,0.00,VWS V14.01,2013-03-25 00:54:00,
2013-03-24 17:55:00,64.3,10.6,29.84,West,281,10.0,18.0,12,0.00,,---,0.00,VWS V14.01,2013-03-25 00:55:00,
2013-03-24 17:59:00,64.0,10.4,29.84,West,279,12.0,16.0,12,0.00,,---,0.00,VWS V14.01,2013-03-25 00:59:00,
2013-03-24 18:00:00,64.0,10.4,29.84,WNW,287,12.0,14.0,12,0.00,,---,0.00,VWS V14.01,2013-03-25 01:00:00,
2013-03-24 18:04:00,63.6,10.1,29.84,West,281,17.0,17.0,12,0.00,,---,0.00,VWS V14.01,2013-03-25 01:04:00,
2013-03-24 18:05:00,63.7,10.2,29.84,WNW,287,11.0,17.0,12,0.00,,---,0.00,VWS V14.01,2013-03-25 01:05:00,
2013-03-24 18:09:00,63.2,9.8,29.85,WNW,294,11.0,14.0,12,0.00,,---,0.00,VWS V14.01,2013-03-25 01:09:00,
2013-03-24 18:10:00,63.3,9.9,29.84,WNW,290,13.0,17.0,12,0.00,,---,0.00,VWS V14.01,2013-03-25 01:10:00,
2013-03-24 18:14:00,62.9,9.5,29.85,West,276,14.0,14.0,12,0.00,,---,0.00,VWS V14.01,2013-03-25 01:14:00,
2013-03-24 18:15:00,62.9,9.5,29.85,WNW,290,11.0,15.0,12,0.00,,---,0.00,VWS V14.01,2013-03-25 01:15:00,
2013-03-24 18:19:00,62.5,9.2,29.85,West,280,12.0,13.0,12,0.00,,---,0.00,VWS V14.01,2013-03-25 01:19:00,
2013-03-24 18:20:00,62.6,9.3,29.85,WNW,289,6.0,15.0,12,0.00,,---,0.00,VWS V14.01,2013-03-25 01:20:00,
2013-03-24 18:24:00,62.1,8.9,29.85,West,281,8.0,10.0,12,0.00,,---,0.00,VWS V14.01,2013-03-25 01:24:00,
2013-03-24 18:25:00,62.2,9.0,29.85,West,281,5.0,15.0,12,0.00,,---,0.00,VWS V14.01,2013-03-25 01:25:00,
2013-03-24 18:29:00,61.6,8.5,29.85,WNW,287,11.0,11.0,12,0.00,,---,0.00,VWS V14.01,2013-03-25 01:29:00,
2013-03-24 18:30:00,61.7,8.6,29.85,WNW,290,10.0,13.0,12,0.00,,---,0.00,VWS V14.01,2013-03-25 01:30:00,
2013-03-24 18:34:00,61.2,8.2,29.85,WNW,291,6.0,11.0,12,0.00,,---,0.00,VWS V14.01,2013-03-25 01:34:00,
2013-03-24 18:35:00,61.2,8.2,29.85,WNW,285,8.0,14.0,12,0.00,,---,0.00,VWS V14.01,2013-03-25 01:35:00,
2013-03-24 18:39:00,60.8,7.9,29.85,WNW,288,9.0,12.0,12,0.00,,---,0.00,VWS V14.01,2013-03-25 01:39:00,
2013-03-24 18:40:00,60.8,7.9,29.85,WNW,292,12.0,14.0,12,0.00,,---,0.00,VWS V14.01,2013-03-25 01:40:00,
2013-03-24 18:44:00,60.5,7.7,29.85,West,275,9.0,9.0,12,0.00,,---,0.00,VWS V14.01,2013-03-25 01:44:00,
2013-03-24 18:45:00,60.6,7.7,29.85,WNW,283,5.0,13.0,12,0.00,,---,0.00,VWS V14.01,2013-03-25 01:45:00,
2013-03-24 18:49:00,60.1,7.3,29.86,WNW,290,5.0,11.0,12,0.00,,---,0.00,VWS V14.01,2013-03-25 01:49:00,
2013-03-24 18:50:00,60.1,7.3,29.86,WNW,282,8.0,12.0,12,0.00,,---,0.00,VWS V14.01,2013-03-25 01:50:00,
2013-03-24 18:54:00,59.8,7.1,29.86,WNW,301,2.0,7.0,12,0.00,,---,0.00,VWS V14.01,2013-03-25 01:54:00,
2013-03-24 18:55:00,59.9,7.2,29.86,WNW,288,4.0,12.0,12,0.00,,---,0.00,VWS V14.01,2013-03-25 01:55:00,
2013-03-24 18:59:00,59.3,8.5,29.86,WNW,298,5.0,6.0,13,0.00,,---,0.00,VWS V14.01,2013-03-25 01:59:00,
2013-03-24 19:00:00,59.4,6.8,29.86,WNW,288,4.0,10.0,12,0.00,,---,0.00,VWS V14.01,2013-03-25 02:00:00,
2013-03-24 19:04:00,59.0,8.2,29.86,West,275,7.0,10.0,13,0.00,,---,0.00,VWS V14.01,2013-03-25 02:04:00,
2013-03-24 19:05:00,59.0,8.2,29.86,WNW,292,4.0,9.0,13,0.00,,---,0.00,VWS V14.01,2013-03-25 02:05:00,
2013-03-24 19:09:00,58.9,8.2,29.86,WNW,287,5.0,6.0,13,0.00,,---,0.00,VWS V14.01,2013-03-25 02:09:00,
2013-03-24 19:10:00,59.0,8.2,29.86,West,277,4.0,10.0,13,0.00,,---,0.00,VWS V14.01,2013-03-25 02:10:00,
2013-03-24 19:14:00,58.5,7.8,29.86,WNW,284,1.0,4.0,13,0.00,,---,0.00,VWS V14.01,2013-03-25 02:14:00,
2013-03-24 19:15:00,58.6,7.9,29.86,WNW,283,3.0,9.0,13,0.00,,---,0.00,VWS V14.01,2013-03-25 02:15:00,
2013-03-24 19:19:00,58.0,7.4,29.86,WNW,298,3.0,4.0,13,0.00,,---,0.00,VWS V14.01,2013-03-25 02:19:00,
2013-03-24 19:20:00,58.1,7.5,29.86,WNW,298,3.0,7.0,13,0.00,,---,0.00,VWS V14.01,2013-03-25 02:20:00,
2013-03-24 19:24:00,57.6,7.1,29.86,WNW,297,1.0,3.0,13,0.00,,---,0.00,VWS V14.01,2013-03-25 02:24:00,
2013-03-24 19:25:00,57.7,7.2,29.86,WNW,296,3.0,7.0,13,0.00,,---,0.00,VWS V14.01,2013-03-25 02:25:00,
2013-03-24 19:29:00,57.2,6.8,29.86,WNW,299,1.0,1.0,13,0.00,,---,0.00,VWS V14.01,2013-03-25 02:29:00,
2013-03-24 19:30:00,57.2,6.8,29.86,WNW,299,0.0,3.0,13,0.00,,---,0.00,VWS V14.01,2013-03-25 02:30:00,
2013-03-24 19:34:00,56.7,8.1,29.87,WNW,300,0.0,0.0,14,0.00,,---,0.00,VWS V14.01,2013-03-25 02:34:00,
2013-03-24 19:35:00,56.8,8.1,29.87,WNW,300,0.0,1.0,14,0.00,,---,0.00,VWS V14.01,2013-03-25 02:35:00,
2013-03-24 19:39:00,56.3,7.7,29.87,WNW,300,0.0,0.0,14,0.00,,---,0.00,VWS V14.01,2013-03-25 02:39:00,
2013-03-24 19:40:00,56.4,7.8,29.87,WNW,300,0.0,0.0,14,0.00,,---,0.00,VWS V14.01,2013-03-25 02:40:00,
2013-03-24 19:44:00,56.1,7.6,29.87,WNW,300,0.0,1.0,14,0.00,,---,0.00,VWS V14.01,2013-03-25 02:44:00,
2013-03-24 19:45:00,56.1,7.6,29.87,WNW,300,1.0,1.0,14,0.00,,---,0.00,VWS V14.01,2013-03-25 02:45:00,
2013-03-24 19:49:00,55.8,7.3,29.87,WNW,300,0.0,0.0,14,0.00,,---,0.00,VWS V14.01,2013-03-25 02:49:00,
2013-03-24 19:50:00,55.9,7.4,29.87,WNW,300,0.0,1.0,14,0.00,,---,0.00,VWS V14.01,2013-03-25 02:50:00,
2013-03-24 19:54:00,55.4,7.0,29.88,WNW,299,0.0,0.0,14,0.00,,---,0.00,VWS V14.01,2013-03-25 02:54:00,
2013-03-24 19:55:00,55.5,7.1,29.88,WNW,300,0.0,2.0,14,0.00,,---,0.00,VWS V14.01,2013-03-25 02:55:00,
2013-03-24 19:59:00,54.9,8.1,29.88,WNW,299,0.0,0.0,15,0.00,,---,0.00,VWS V14.01,2013-03-25 02:59:00,
2013-03-24 20:00:00,55.0,8.2,29.88,WNW,299,0.0,0.0,15,0.00,,---,0.00,VWS V14.01,2013-03-25 03:00:00,
2013-03-24 20:04:00,54.4,7.7,29.88,WNW,300,0.0,0.0,15,0.00,,---,0.00,VWS V14.01,2013-03-25 03:04:00,
2013-03-24 20:05:00,54.4,7.7,29.88,WNW,299,0.0,0.0,15,0.00,,---,0.00,VWS V14.01,2013-03-25 03:05:00,
2013-03-24 20:09:00,54.0,7.4,29.88,WNW,300,3.0,4.0,15,0.00,,---,0.00,VWS V14.01,2013-03-25 03:09:00,
2013-03-24 20:10:00,54.0,7.4,29.88,WNW,300,0.0,2.0,15,0.00,,---,0.00,VWS V14.01,2013-03-25 03:10:00,
2013-03-24 20:14:00,53.6,7.1,29.88,WNW,299,0.0,0.0,15,0.00,,---,0.00,VWS V14.01,2013-03-25 03:14:00,
2013-03-24 20:15:00,53.7,7.2,29.88,WNW,300,0.0,4.0,15,0.00,,---,0.00,VWS V14.01,2013-03-25 03:15:00,
2013-03-24 20:19:00,53.2,8.2,29.89,WNW,300,0.0,0.0,16,0.00,,---,0.00,VWS V14.01,2013-03-25 03:19:00,
2013-03-24 20:20:00,53.2,8.2,29.88,WNW,300,0.0,0.0,16,0.00,,---,0.00,VWS V14.01,2013-03-25 03:20:00,
2013-03-24 20:24:00,52.7,7.8,29.88,WNW,302,0.0,0.0,16,0.00,,---,0.00,VWS V14.01,2013-03-25 03:24:00,
2013-03-24 20:25:00,52.7,7.8,29.89,WNW,300,0.0,2.0,16,0.00,,---,0.00,VWS V14.01,2013-03-25 03:25:00,
2013-03-24 20:29:00,52.1,7.3,29.89,North,5,1.0,2.0,16,0.00,,---,0.00,VWS V14.01,2013-03-25 03:29:00,
2013-03-24 20:30:00,52.2,7.4,29.89,North,355,2.0,2.0,16,0.00,,---,0.00,VWS V14.01,2013-03-25 03:30:00,
2013-03-24 20:34:00,50.6,7.4,29.89,NNE,33,1.0,1.0,17,0.00,,---,0.00,VWS V14.01,2013-03-25 03:34:00,
2013-03-24 20:35:00,50.9,7.7,29.89,NNE,33,1.0,3.0,17,0.00,,---,0.00,VWS V14.01,2013-03-25 03:35:00,
2013-03-24 20:39:00,50.7,7.5,29.89,NE,37,0.0,1.0,17,0.00,,---,0.00,VWS V14.01,2013-03-25 03:39:00,
2013-03-24 20:40:00,50.5,7.3,29.89,NE,37,1.0,2.0,17,0.00,,---,0.00,VWS V14.01,2013-03-25 03:40:00,
2013-03-24 20:44:00,52.8,7.9,29.89,ENE,57,0.0,2.0,16,0.00,,---,0.00,VWS V14.01,2013-03-25 03:44:00,
2013-03-24 20:45:00,52.6,7.7,29.89,ENE,57,2.0,3.0,16,0.00,,---,0.00,VWS V14.01,2013-03-25 03:45:00,
2013-03-24 20:49:00,53.4,8.4,29.89,ENE,57,0.0,1.0,16,0.00,,---,0.00,VWS V14.01,2013-03-25 03:49:00,
2013-03-24 20:50:00,53.4,8.4,29.89,ENE,57,1.0,2.0,16,0.00,,---,0.00,VWS V14.01,2013-03-25 03:50:00,
2013-03-24 20:54:00,52.6,7.7,29.89,ENE,58,0.0,1.0,16,0.00,,---,0.00,VWS V14.01,2013-03-25 03:54:00,
2013-03-24 20:55:00,52.7,7.8,29.89,ENE,58,0.0,1.0,16,0.00,,---,0.00,VWS V14.01,2013-03-25 03:55:00,
2013-03-24 20:59:00,51.5,8.1,29.90,ENE,58,0.0,1.0,17,0.00,,---,0.00,VWS V14.01,2013-03-25 03:59:00,
2013-03-24 21:00:00,51.2,7.9,29.90,ENE,58,0.0,1.0,17,0.00,,---,0.00,VWS V14.01,2013-03-25 04:00:00,
2013-03-24 21:05:00,50.3,7.2,29.90,ENE,58,0.0,1.0,17,0.00,,---,0.00,VWS V14.01,2013-03-25 04:05:00,
2013-03-24 21:10:00,49.2,7.5,29.90,ENE,58,0.0,1.0,18,0.00,,---,0.00,VWS V14.01,2013-03-25 04:10:00,
2013-03-24 21:15:00,49.1,7.4,29.90,ENE,61,0.0,1.0,18,0.00,,---,0.00,VWS V14.01,2013-03-25 04:15:00,
2013-03-24 21:20:00,49.9,6.8,29.90,ENE,60,1.0,1.0,17,0.00,,---,0.00,VWS V14.01,2013-03-25 04:20:00,
2013-03-24 21:25:00,50.6,7.4,29.90,ENE,61,1.0,1.0,17,0.00,,---,0.00,VWS V14.01,2013-03-25 04:25:00,
2013-03-24 21:30:00,51.0,7.7,29.90,ENE,61,0.0,2.0,17,0.00,,---,0.00,VWS V14.01,2013-03-25 04:30:00,
2013-03-24 21:35:00,51.4,8.1,29.91,ENE,62,0.0,1.0,17,0.00,,---,0.00,VWS V14.01,2013-03-25 04:35:00,
2013-03-24 21:40:00,51.2,7.9,29.90,ENE,61,0.0,0.0,17,0.00,,---,0.00,VWS V14.01,2013-03-25 04:40:00,
2013-03-24 21:45:00,50.9,7.7,29.90,ENE,62,0.0,0.0,17,0.00,,---,0.00,VWS V14.01,2013-03-25 04:45:00,
2013-03-24 21:50:00,50.5,7.3,29.90,ENE,61,0.0,0.0,17,0.00,,---,0.00,VWS V14.01,2013-03-25 04:50:00,
2013-03-24 21:55:00,49.8,8.0,29.91,ENE,61,0.0,0.0,18,0.00,,---,0.00,VWS V14.01,2013-03-25 04:55:00,
2013-03-24 22:00:00,48.4,6.9,29.91,ENE,61,0.0,0.0,18,0.00,,---,0.00,VWS V14.01,2013-03-25 05:00:00,
2013-03-24 22:05:00,46.9,6.8,29.91,ENE,62,0.0,0.0,19,0.00,,---,0.00,VWS V14.01,2013-03-25 05:05:00,
2013-03-24 22:10:00,46.0,6.1,29.91,ENE,62,0.0,0.0,19,0.00,,---,0.00,VWS V14.01,2013-03-25 05:10:00,
2013-03-24 22:15:00,47.4,7.2,29.91,ENE,62,0.0,1.0,19,0.00,,---,0.00,VWS V14.01,2013-03-25 05:15:00,
2013-03-24 22:20:00,48.6,7.0,29.91,ENE,61,0.0,1.0,18,0.00,,---,0.00,VWS V14.01,2013-03-25 05:20:00,
2013-03-24 22:25:00,49.5,7.8,29.91,ENE,62,0.0,0.0,18,0.00,,---,0.00,VWS V14.01,2013-03-25 05:25:00,
2013-03-24 22:30:00,50.0,6.9,29.91,ENE,61,0.0,0.0,17,0.00,,---,0.00,VWS V14.01,2013-03-25 05:30:00,
2013-03-24 22:35:00,49.7,6.7,29.91,ENE,61,0.0,0.0,17,0.00,,---,0.00,VWS V14.01,2013-03-25 05:35:00,
2013-03-24 22:40:00,48.8,7.2,29.92,ENE,62,0.0,0.0,18,0.00,,---,0.00,VWS V14.01,2013-03-25 05:40:00,
2013-03-24 22:45:00,47.9,6.4,29.92,ENE,62,0.0,0.0,18,0.00,,---,0.00,VWS V14.01,2013-03-25 05:45:00,
2013-03-24 22:50:00,47.2,7.1,29.91,ENE,62,0.0,0.0,19,0.00,,---,0.00,VWS V14.01,2013-03-25 05:50:00,
2013-03-24 22:55:00,45.0,6.4,29.91,ENE,61,0.0,0.0,20,0.00,,---,0.00,VWS V14.01,2013-03-25 05:55:00,
2013-03-24 23:00:00,43.1,5.8,29.91,ENE,62,0.0,0.0,21,0.00,,---,0.00,VWS V14.01,2013-03-25 06:00:00,
2013-03-24 23:05:00,42.4,6.3,29.91,ENE,62,0.0,0.0,22,0.00,,---,0.00,VWS V14.01,2013-03-25 06:05:00,
2013-03-24 23:10:00,42.5,6.3,29.91,ENE,63,0.0,0.0,22,0.00,,---,0.00,VWS V14.01,2013-03-25 06:10:00,
2013-03-24 23:15:00,42.6,6.4,29.91,ENE,63,0.0,0.0,22,0.00,,---,0.00,VWS V14.01,2013-03-25 06:15:00,
2013-03-24 23:20:00,42.0,5.9,29.92,ENE,63,0.0,0.0,22,0.00,,---,0.00,VWS V14.01,2013-03-25 06:20:00,
2013-03-24 23:25:00,41.2,6.2,29.91,ENE,63,0.0,0.0,23,0.00,,---,0.00,VWS V14.01,2013-03-25 06:25:00,
2013-03-24 23:30:00,40.6,5.7,29.92,ENE,63,0.0,0.0,23,0.00,,---,0.00,VWS V14.01,2013-03-25 06:30:00,
2013-03-24 23:35:00,40.1,5.3,29.91,ENE,63,0.0,0.0,23,0.00,,---,0.00,VWS V14.01,2013-03-25 06:35:00,
2013-03-24 23:40:00,40.7,5.8,29.91,ENE,63,1.0,1.0,23,0.00,,---,0.00,VWS V14.01,2013-03-25 06:40:00,
2013-03-24 23:45:00,41.1,6.1,29.92,East,81,1.0,1.0,23,0.00,,---,0.00,VWS V14.01,2013-03-25 06:45:00,
2013-03-24 23:50:00,41.9,6.8,29.92,East,82,0.0,1.0,23,0.00,,---,0.00,VWS V14.01,2013-03-25 06:50:00,
2013-03-24 23:55:00,42.9,6.7,29.92,East,82,0.0,1.0,22,0.00,,---,0.00,VWS V14.01,2013-03-25 06:55:00,